• In Deutschland
  • Länderverzeichnis
  • Für 7 Tage
  • Wassertemperatur
  • Satellitenkarten
  • Wetterkarte
  • Widgets
  • user-avatar
    Anmelden

    Stündliche Wetter Sydney

    Heute, 23 Juli, Sonntag

    Zeit Temperatur Niederschläge Wind Luftdruck Luftfeuchtigkeit
    00:00 +7°C° 0 mm 3 m/S 763 mmHg 55%
    01:00 +7°C° 0 mm 3 m/S 763 mmHg 57%
    02:00 +7°C° 0 mm 3 m/S 763 mmHg 57%
    03:00 +5°C° 0 mm 3 m/S 763 mmHg 57%
    04:00 +5°C° 0 mm 3 m/S 762 mmHg 56%
    05:00 +7°C° 0 mm 3 m/S 762 mmHg 54%
    06:00 +7°C° 0 mm 3 m/S 762 mmHg 52%
    07:00 +6°C° 0 mm 4 m/S 763 mmHg 50%
    08:00 +10°C° 0 mm 3 m/S 762 mmHg 43%
    09:00 +13°C° 0 mm 3 m/S 762 mmHg 35%
    10:00 +17°C° 0 mm 3 m/S 762 mmHg 28%
    11:00 +19°C° 0 mm 3 m/S 761 mmHg 26%
    12:00 +21°C° 0 mm 3 m/S 761 mmHg 24%
    13:00 +24°C° 0 mm 3 m/S 760 mmHg 22%
    14:00 +24°C° 0 mm 3 m/S 760 mmHg 24%
    15:00 +22°C° 0 mm 3 m/S 759 mmHg 27%
    16:00 +22°C° 0 mm 3 m/S 759 mmHg 30%
    17:00 +20°C° 0 mm 4 m/S 759 mmHg 33%
    18:00 +18°C° 0 mm 4 m/S 760 mmHg 37%
    19:00 +14°C° 0 mm 5 m/S 760 mmHg 40%
    20:00 +14°C° 0 mm 5 m/S 760 mmHg 42%
    21:00 +13°C° 0 mm 4 m/S 761 mmHg 44%
    22:00 +12°C° 0 mm 4 m/S 761 mmHg 46%
    23:00 +12°C° 0 mm 4 m/S 761 mmHg 49%

    Morgen, 24 Juli, Montag

    Zeit Temperatur Niederschläge Wind Luftdruck Luftfeuchtigkeit
    00:00 +11°C° 0 mm 4 m/S 761 mmHg 52%
    01:00 +11°C° 0 mm 4 m/S 762 mmHg 55%
    02:00 +11°C° 0 mm 4 m/S 762 mmHg 58%
    03:00 +10°C° 0 mm 4 m/S 762 mmHg 61%
    04:00 +10°C° 0 mm 4 m/S 762 mmHg 65%
    05:00 +8°C° 0 mm 4 m/S 762 mmHg 68%
    06:00 +8°C° 0 mm 4 m/S 763 mmHg 70%
    07:00 +8°C° 0 mm 4 m/S 763 mmHg 73%
    08:00 +10°C° 0 mm 5 m/S 764 mmHg 65%
    09:00 +13°C° 0 mm 5 m/S 764 mmHg 57%
    10:00 +16°C° 0 mm 5 m/S 764 mmHg 49%
    11:00 +17°C° 0 mm 5 m/S 764 mmHg 43%
    12:00 +20°C° 0 mm 4 m/S 764 mmHg 37%
    13:00 +21°C° 0 mm 4 m/S 763 mmHg 31%
    14:00 +21°C° 0 mm 4 m/S 763 mmHg 32%
    15:00 +20°C° 0 mm 3 m/S 763 mmHg 33%
    16:00 +20°C° 0 mm 3 m/S 763 mmHg 34%
    17:00 +18°C° 0 mm 4 m/S 764 mmHg 41%
    18:00 +15°C° 0 mm 4 m/S 764 mmHg 47%
    19:00 +13°C° 0 mm 5 m/S 765 mmHg 54%
    20:00 +12°C° 0 mm 5 m/S 765 mmHg 58%
    21:00 +10°C° 0 mm 5 m/S 766 mmHg 63%
    22:00 +9°C° 0 mm 5 m/S 766 mmHg 67%
    23:00 +9°C° 0 mm 5 m/S 766 mmHg 70%

    übermorgen, 25 Juli, Dienstag

    Zeit Temperatur Niederschläge Wind Luftdruck Luftfeuchtigkeit
    00:00 +8°C° 0 mm 5 m/S 766 mmHg 73%
    01:00 +8°C° 0 mm 5 m/S 766 mmHg 76%
    02:00 +7°C° 0 mm 5 m/S 766 mmHg 78%
    03:00 +7°C° 0 mm 4 m/S 766 mmHg 80%
    04:00 +7°C° 0 mm 4 m/S 766 mmHg 82%
    05:00 +6°C° 0 mm 4 m/S 766 mmHg 83%
    06:00 +6°C° 0 mm 4 m/S 766 mmHg 83%
    07:00 +6°C° 0 mm 4 m/S 766 mmHg 84%
    08:00 +9°C° 0 mm 3 m/S 767 mmHg 73%
    09:00 +12°C° 0 mm 3 m/S 767 mmHg 61%
    10:00 +16°C° 0 mm 3 m/S 767 mmHg 50%
    11:00 +17°C° 0 mm 3 m/S 766 mmHg 43%
    12:00 +19°C° 0 mm 2 m/S 765 mmHg 37%
    13:00 +21°C° 0 mm 2 m/S 765 mmHg 31%
    14:00 +21°C° 0 mm 2 m/S 764 mmHg 32%
    15:00 +21°C° 0 mm 2 m/S 764 mmHg 34%
    16:00 +20°C° 0 mm 2 m/S 763 mmHg 36%
    17:00 +18°C° 0 mm 2 m/S 764 mmHg 42%
    18:00 +16°C° 0 mm 3 m/S 764 mmHg 48%
    19:00 +13°C° 0 mm 3 m/S 764 mmHg 54%
    20:00 +13°C° 0 mm 4 m/S 764 mmHg 56%
    21:00 +12°C° 0 mm 4 m/S 764 mmHg 57%
    22:00 +12°C° 0 mm 4 m/S 764 mmHg 59%
    23:00 +12°C° 0 mm 4 m/S 764 mmHg 58%

    26 Juli, Mittwoch

    Zeit Temperatur Niederschläge Wind Luftdruck Luftfeuchtigkeit
    00:00 +12°C° 0 mm 5 m/S 763 mmHg 57%
    01:00 +11°C° 0 mm 6 m/S 763 mmHg 57%
    02:00 +11°C° 0 mm 6 m/S 762 mmHg 55%
    03:00 +12°C° 0 mm 7 m/S 762 mmHg 53%
    04:00 +12°C° 0 mm 7 m/S 761 mmHg 51%
    05:00 +12°C° 0 mm 7 m/S 762 mmHg 51%
    06:00 +12°C° 0 mm 7 m/S 762 mmHg 50%
    07:00 +13°C° 0 mm 6 m/S 762 mmHg 50%
    08:00 +15°C° 0 mm 7 m/S 762 mmHg 48%
    09:00 +17°C° 0 mm 7 m/S 762 mmHg 45%
    10:00 +20°C° 0 mm 7 m/S 762 mmHg 43%
    11:00 +21°C° 0 mm 7 m/S 761 mmHg 41%
    12:00 +21°C° 0 mm 8 m/S 761 mmHg 38%
    13:00 +21°C° 0 mm 8 m/S 760 mmHg 36%
    14:00 +21°C° 0 mm 8 m/S 760 mmHg 37%
    15:00 +20°C° 0 mm 8 m/S 760 mmHg 39%
    16:00 +18°C° 0 mm 8 m/S 760 mmHg 40%
    17:00 +17°C° 0 mm 8 m/S 761 mmHg 45%
    18:00 +15°C° 0 mm 8 m/S 761 mmHg 49%
    19:00 +13°C° 0 mm 8 m/S 762 mmHg 54%
    20:00 +12°C° 0 mm 8 m/S 762 mmHg 56%
    21:00 +11°C° 0 mm 7 m/S 763 mmHg 58%
    22:00 +11°C° 0 mm 7 m/S 764 mmHg 60%
    23:00 +10°C° 0 mm 7 m/S 764 mmHg 62%

    27 Juli, Donnerstag

    Zeit Temperatur Niederschläge Wind Luftdruck Luftfeuchtigkeit
    00:00 +10°C° 0 mm 7 m/S 764 mmHg 64%
    01:00 +9°C° 0 mm 6 m/S 764 mmHg 66%
    02:00 +9°C° 0 mm 6 m/S 765 mmHg 69%
    03:00 +8°C° 0 mm 6 m/S 765 mmHg 71%
    04:00 +8°C° 0 mm 5 m/S 765 mmHg 74%
    05:00 +7°C° 0 mm 5 m/S 766 mmHg 76%
    06:00 +7°C° 0 mm 5 m/S 766 mmHg 77%
    07:00 +6°C° 0 mm 5 m/S 767 mmHg 79%
    08:00 +9°C° 0 mm 5 m/S 767 mmHg 68%
    09:00 +12°C° 0 mm 5 m/S 767 mmHg 58%
    10:00 +14°C° 0 mm 5 m/S 768 mmHg 47%
    11:00 +15°C° 0 mm 5 m/S 767 mmHg 42%
    12:00 +17°C° 0 mm 4 m/S 767 mmHg 37%
    13:00 +18°C° 0 mm 4 m/S 766 mmHg 32%
    14:00 +18°C° 0 mm 3 m/S 766 mmHg 34%
    15:00 +17°C° 0 mm 3 m/S 766 mmHg 35%
    16:00 +17°C° 0 mm 3 m/S 766 mmHg 37%
    17:00 +15°C° 0 mm 2 m/S 766 mmHg 45%
    18:00 +13°C° 0 mm 2 m/S 767 mmHg 53%
    19:00 +11°C° 0 mm 1 m/S 767 mmHg 62%
    20:00 +10°C° 0 mm 2 m/S 767 mmHg 62%
    21:00 +10°C° 0 mm 2 m/S 767 mmHg 63%
    22:00 +10°C° 0 mm 2 m/S 767 mmHg 63%
    23:00 +9°C° 0 mm 2 m/S 767 mmHg 65%

    28 Juli, Freitag

    Zeit Temperatur Niederschläge Wind Luftdruck Luftfeuchtigkeit
    00:00 +9°C° 0 mm 2 m/S 767 mmHg 66%
    01:00 +8°C° 0 mm 3 m/S 766 mmHg 68%
    02:00 +8°C° 0 mm 3 m/S 766 mmHg 66%
    03:00 +7°C° 0 mm 4 m/S 765 mmHg 64%
    04:00 +8°C° 0 mm 4 m/S 765 mmHg 62%
    05:00 +8°C° 0 mm 4 m/S 765 mmHg 60%
    06:00 +8°C° 0 mm 4 m/S 765 mmHg 57%
    07:00 +8°C° 0 mm 4 m/S 765 mmHg 55%
    08:00 +10°C° 0,1 mm 4 m/S 765 mmHg 53%
    09:00 +12°C° 0,1 mm 4 m/S 764 mmHg 51%
    10:00 +13°C° 0,1 mm 4 m/S 764 mmHg 49%
    11:00 +15°C° 0,1 mm 4 m/S 764 mmHg 49%
    12:00 +16°C° 0,1 mm 5 m/S 763 mmHg 49%
    13:00 +19°C° 0,1 mm 5 m/S 762 mmHg 49%
    14:00 +17°C° 0 mm 5 m/S 762 mmHg 51%
    15:00 +17°C° 0 mm 5 m/S 762 mmHg 53%
    16:00 +16°C° 0 mm 5 m/S 762 mmHg 55%
    17:00 +15°C° 0 mm 6 m/S 763 mmHg 60%
    18:00 +13°C° 0 mm 6 m/S 763 mmHg 64%
    19:00 +11°C° 0 mm 6 m/S 764 mmHg 68%
    20:00 +10°C° 0 mm 6 m/S 764 mmHg 72%
    21:00 +9°C° 0 mm 5 m/S 764 mmHg 76%
    22:00 +8°C° 0 mm 5 m/S 764 mmHg 79%
    23:00 +8°C° 0 mm 4 m/S 764 mmHg 82%
    Mehr zeigen